Weather History for Stevens Point, WI

Change the Weather History Date:

Wednesday, November 24, 2010

  Actual Average Record
Temperature  
Mean Temperature 24 °F -  
Max Temperature 33 °F 37 °F 58 °F (1983)
Min Temperature 15 °F 20 °F -11 °F (1950)
Degree Days  
Heating Degree Days 41    
Moisture  
Dew Point 23 °F    
Average Humidity 84    
Maximum Humidity 93    
Minimum Humidity 75    
Precipitation  
Precipitation 0.05 in - - ()
Sea Level Pressure  
Sea Level Pressure 30.05 in    
Wind  
Wind Speed 9 mph (East)    
Max Wind Speed 25 mph    
Max Gust Speed 33 mph    
Visibility 8 miles    
Events Snow    
Averages and records for this station are not official NWS values.
T = Trace of Precipitation, MM = Missing Value Source: NWS Daily Summary

Daily Weather History Graph

Daily Weather History Graph

Search for Another Location

Airport:

Trip Planner

Search our weather history database for the weather conditions in past years. The results will help you decide how hot, cold, wet, or windy it might be!

Date:

Astronomy

Nov. 24, 2010 Rise Set
Actual Time 7:06 AM CST 4:23 PM CST
Civil Twilight 6:33 AM CST 4:55 PM CST
Nautical Twilight 5:58 AM CST 5:31 PM CST
Astronomical Twilight 5:23 AM CST 6:06 PM CST
Moon 7:08 PM CST (11/24) 9:56 AM CST (11/24)
Length of Visible Light 10h 21m
Length of Day
9h 16m
Waning Gibbous, 90% of the Moon is Illuminated
Nov 24
Waning Gibbous
Nov 28
Last Quarter
Dec 5
New
Dec 13
First Quarter
Dec 21
Full

Hourly Weather History & Observations

Time (CST) Temp. Windchill Dew Point Humidity Pressure Visibility Wind Dir Wind Speed Gust Speed Precip Events Conditions
12:15 AM 15.8 °F - 12.2 °F 86% 30.30 in 10.0 mi Calm Calm - N/A   Clear
12:35 AM 15.8 °F - 12.2 °F 86% 30.30 in 10.0 mi Calm Calm - N/A   Clear
12:55 AM 15.8 °F 10.2 °F 12.2 °F 86% 30.29 in 10.0 mi NE 3.5 mph - N/A   Clear
1:15 AM 17.6 °F - 12.2 °F 79% 30.30 in 10.0 mi Calm Calm - N/A   Clear
2:15 AM 17.6 °F 12.3 °F 14.0 °F 86% 30.29 in 10.0 mi East 3.5 mph - N/A   Clear
2:35 AM 17.6 °F 7.3 °F 14.0 °F 86% 30.28 in 10.0 mi East 8.1 mph - N/A   Clear
3:15 AM 19.4 °F 7.2 °F 15.8 °F 86% 30.26 in 10.0 mi East 11.5 mph - N/A   Clear
3:35 AM 19.4 °F 10.4 °F 15.8 °F 86% 30.25 in 10.0 mi East 6.9 mph - N/A   Clear
3:55 AM 19.4 °F 9.5 °F 15.8 °F 86% 30.24 in 10.0 mi East 8.1 mph - N/A   Clear
4:15 AM 19.4 °F 8.6 °F 15.8 °F 86% 30.23 in 10.0 mi East 9.2 mph - N/A   Clear
4:35 AM 19.4 °F 10.4 °F 15.8 °F 86% 30.23 in 10.0 mi East 6.9 mph - N/A   Clear
4:55 AM 21.2 °F 12.6 °F 15.8 °F 80% 30.22 in 10.0 mi East 6.9 mph - N/A   Clear
5:15 AM 21.2 °F 13.6 °F 17.6 °F 86% 30.22 in 10.0 mi East 5.8 mph - N/A   Scattered Clouds
5:35 AM 21.2 °F 13.6 °F 17.6 °F 86% 30.23 in 10.0 mi ESE 5.8 mph - N/A   Scattered Clouds
5:55 AM 21.2 °F 14.9 °F 17.6 °F 86% 30.22 in 10.0 mi ESE 4.6 mph - N/A   Mostly Cloudy
6:15 AM 21.2 °F 13.6 °F 17.6 °F 86% 30.21 in 10.0 mi East 5.8 mph - N/A   Mostly Cloudy
6:35 AM 21.2 °F 11.7 °F 17.6 °F 86% 30.21 in 10.0 mi East 8.1 mph - N/A   Mostly Cloudy
6:55 AM 21.2 °F 10.1 °F 19.4 °F 93% 30.20 in 10.0 mi East 10.4 mph - N/A   Scattered Clouds
7:15 AM 23.0 °F 13.1 °F 19.4 °F 86% 30.20 in 10.0 mi East 9.2 mph - N/A   Scattered Clouds
7:35 AM 24.8 °F 15.3 °F 19.4 °F 80% 30.20 in 10.0 mi East 9.2 mph - N/A   Mostly Cloudy
7:55 AM 24.8 °F 16.9 °F 21.2 °F 86% 30.19 in 10.0 mi East 6.9 mph - N/A   Overcast
8:15 AM 24.8 °F 14.6 °F 21.2 °F 86% 30.18 in 10.0 mi East 10.4 mph - N/A   Overcast
8:35 AM 26.6 °F 16.8 °F 21.2 °F 80% 30.18 in 10.0 mi East 10.4 mph - N/A   Overcast
8:55 AM 26.6 °F 16.8 °F 23.0 °F 86% 30.17 in 10.0 mi East 10.4 mph 18.4 mph N/A   Overcast
9:15 AM 26.6 °F 16.2 °F 23.0 °F 86% 30.17 in 10.0 mi East 11.5 mph 17.3 mph N/A   Overcast
9:35 AM 28.4 °F 19.1 °F 24.8 °F 86% 30.17 in 10.0 mi East 10.4 mph - N/A   Overcast
10:15 AM 28.4 °F 18.5 °F 24.8 °F 86% 30.14 in 10.0 mi East 11.5 mph 17.3 mph N/A   Overcast
10:35 AM 28.4 °F 18.0 °F 24.8 °F 86% 30.13 in 10.0 mi East 12.7 mph - N/A   Overcast
10:55 AM 30.2 °F 18.5 °F 26.6 °F 86% 30.10 in 10.0 mi East 17.3 mph 21.9 mph N/A   Overcast
11:15 AM 30.2 °F 19.3 °F 26.6 °F 86% 30.09 in 10.0 mi East 15.0 mph 21.9 mph N/A   Overcast
11:35 AM 30.2 °F 19.8 °F 26.6 °F 86% 30.06 in 10.0 mi East 13.8 mph 20.7 mph N/A   Overcast
11:55 AM 32.0 °F 20.8 °F 26.6 °F 80% 30.05 in 10.0 mi ESE 17.3 mph 24.2 mph N/A   Overcast
12:15 PM 32.0 °F 22.1 °F 26.6 °F 80% 30.02 in 10.0 mi East 13.8 mph 26.5 mph N/A   Overcast
12:35 PM 33.8 °F 24.8 °F 26.6 °F 75% 30.02 in 10.0 mi ESE 12.7 mph 29.9 mph N/A   Overcast
12:55 PM 33.8 °F 23.2 °F 26.6 °F 75% 30.00 in 10.0 mi East 17.3 mph 26.5 mph N/A   Overcast
1:15 PM 33.8 °F 22.8 °F 26.6 °F 75% 29.98 in 10.0 mi East 18.4 mph 25.3 mph N/A   Overcast
1:35 PM 33.8 °F 21.0 °F 26.6 °F 75% 29.95 in 10.0 mi East 25.3 mph 31.1 mph N/A   Overcast
1:55 PM 33.8 °F 22.2 °F 26.6 °F 75% 29.93 in 10.0 mi East 20.7 mph 25.3 mph N/A   Overcast
2:15 PM 33.8 °F 21.9 °F 26.6 °F 75% 29.91 in 10.0 mi East 21.9 mph 27.6 mph N/A   Overcast
2:35 PM 33.8 °F 22.5 °F 26.6 °F 75% 29.92 in 10.0 mi East 19.6 mph 27.6 mph N/A   Overcast
2:55 PM 33.8 °F 24.3 °F 26.6 °F 75% 29.92 in 10.0 mi ESE 13.8 mph 25.3 mph N/A   Overcast
3:15 PM 33.8 °F 23.5 °F 26.6 °F 75% 29.92 in 10.0 mi ESE 16.1 mph 24.2 mph N/A   Overcast
3:35 PM 33.8 °F 22.2 °F 26.6 °F 75% 29.90 in 10.0 mi East 20.7 mph 28.8 mph N/A   Overcast
3:55 PM 33.8 °F 22.8 °F 26.6 °F 75% 29.90 in 10.0 mi East 18.4 mph 27.6 mph N/A   Overcast
4:15 PM 33.8 °F 22.5 °F 28.4 °F 81% 29.88 in 4.0 mi East 19.6 mph 24.2 mph N/A Snow Light Snow
4:35 PM 32.0 °F 19.5 °F 28.4 °F 87% 29.86 in 1.0 mi East 21.9 mph 31.1 mph N/A Snow Light Snow
4:55 PM 32.0 °F 20.8 °F 30.2 °F 93% 29.86 in 1.5 mi East 17.3 mph 23.0 mph N/A Snow Light Snow
5:15 PM 32.0 °F 20.8 °F 30.2 °F 93% 29.83 in 0.8 mi East 17.3 mph 24.2 mph N/A Snow Snow
5:35 PM 32.0 °F 20.5 °F 30.2 °F 93% 29.81 in 1.2 mi East 18.4 mph 25.3 mph N/A Snow Light Snow
5:55 PM 32.0 °F 20.1 °F 30.2 °F 93% 29.79 in 2.5 mi East 19.6 mph 27.6 mph N/A Snow Light Snow
6:15 PM 32.0 °F 18.9 °F 28.4 °F 87% 29.80 in 7.0 mi East 24.2 mph 31.1 mph N/A   Overcast
6:35 PM 32.0 °F 18.6 °F 30.2 °F 93% 29.79 in 5.0 mi East 25.3 mph 33.4 mph N/A   Overcast
6:55 PM 32.0 °F 20.8 °F 30.2 °F 93% 29.79 in 3.0 mi East 17.3 mph 26.5 mph N/A   Overcast
7:15 PM 32.0 °F 21.6 °F 30.2 °F 93% 29.78 in 4.0 mi East 15.0 mph 24.2 mph N/A   Overcast
7:35 PM 33.8 °F 24.3 °F 30.2 °F 87% 29.77 in 5.0 mi ESE 13.8 mph 19.6 mph N/A   Overcast
7:55 PM 33.8 °F 24.8 °F 30.2 °F 87% 29.77 in 3.0 mi East 12.7 mph 18.4 mph 0.02 in   Overcast
8:15 PM 33.8 °F 25.3 °F 30.2 °F 87% 29.76 in 4.0 mi East 11.5 mph - 0.01 in   Overcast
8:35 PM 33.8 °F 25.3 °F 30.2 °F 87% 29.75 in 4.0 mi East 11.5 mph - 0.03 in   Overcast
8:55 PM 33.8 °F 27.0 °F 30.2 °F 87% 29.75 in 3.0 mi East 8.1 mph - 0.05 in   Overcast
9:15 PM 33.8 °F 29.6 °F 32.0 °F 93% 29.75 in 2.5 mi East 4.6 mph - 0.01 in   Overcast
9:35 PM 33.8 °F 28.6 °F 32.0 °F 93% 29.74 in 3.0 mi East 5.8 mph - 0.02 in   Overcast
9:55 PM 33.8 °F 25.8 °F 32.0 °F 93% 29.71 in 2.0 mi East 10.4 mph - 0.03 in   Overcast
10:15 PM 33.8 °F 28.6 °F 32.0 °F 93% 29.71 in 3.0 mi East 5.8 mph - 0.01 in   Overcast
10:35 PM 33.8 °F 30.8 °F 32.0 °F 93% 29.72 in 3.0 mi East 3.5 mph - 0.01 in   Overcast
10:55 PM 33.8 °F 29.6 °F 32.0 °F 93% 29.71 in 2.5 mi East 4.6 mph - 0.01 in   Overcast
11:15 PM 33.8 °F - 32.0 °F 93% 29.70 in 2.5 mi Calm Calm - 0.01 in   Overcast
11:35 PM 33.8 °F 30.8 °F 32.0 °F 93% 29.70 in 2.5 mi East 3.5 mph - 0.02 in   Overcast
11:55 PM 33.8 °F - 32.0 °F 93% 29.70 in 2.5 mi Calm Calm - 0.02 in   Overcast